Regional Weather Roundup
Issued by NWS

Home | Current Version | Previous Version | Graphics & Text | Print | Product List | Glossary On
Versions: 1 2 3 4 5 6 7 8 9 10 11 12 13 14 15 16 17 18 19 20 21 22 23 24 25 26 27 28 29 30 31 32 33 34 35 36 37 38 39 40 41 42 43 44 45 46 47 48 49 50
000
ASUS43 KMKX 262300
RWRWI

WISCONSIN REGIONAL WEATHER ROUNDUP
NATIONAL WEATHER SERVICE MILWAUKEE/SULLIVAN WI
500 PM CST MON JAN 26 2015

NOTE: "FAIR" INDICATES FEW OR NO CLOUDS BELOW 12,000 FEET WITH NO
SIGNIFICANT WEATHER AND/OR OBSTRUCTIONS TO VISIBILITY.

WIZ001-002-006>008-014>016-023>028-270000-
NORTHWEST WISCONSIN

CITY           SKY/WX    TMP DP  RH WIND       PRES   REMARKS
SUPERIOR ARPT  CLOUDY    30  28  94 CALM      29.79R FOG
ASHLAND        FLURRIES  25  22  88 CALM      29.79R
HAYWARD        CLOUDY    25  22  88 S3        29.77R FOG
SIREN          CLOUDY    33  32  96 CALM      29.78R FOG
CUMBERLAND     MIX PCPN  28  27  93 CALM      29.77R
RICE LAKE      LGT SNOW  26  25  93 CALM      29.79R
CHETEK         MIX PCPN  26  25  96 CALM      29.79R
LADYSMITH      DRIZZLE   24  23  94 SE3       29.79R
EAU CLAIRE     CLOUDY    27  24  89 NE3       29.79R FOG
MENOMONIE      MIX PCPN  30  28  91 CALM      29.79R
NEW RICHMOND   CLOUDY    37  32  81 NW6       29.78R WCI  33
OSCEOLA        CLOUDY    40  32  74 NW6       29.81R
$$

WIZ003>005-009-010-017-018-270000-
NORTH CENTRAL WISCONSIN

CITY           SKY/WX    TMP DP  RH WIND       PRES   REMARKS
MANITOWISH WTR LGT SNOW  19  16  88 S5        29.76R WCI  12
ARBOR VITAE    CLOUDY    22  18  85 S3        29.76R
WOODRUFF       CLOUDY    22  18  85 S3        29.76R
RHINELANDER    CLOUDY    19  15  84 S3        29.79R
EAGLE RIVER    LGT SNOW  20  16  83 S3        29.76R
LAND O LAKES   FLURRIES  21  17  84 SE5       29.77R WCI  14
PHILLIPS       LGT SNOW  20  19  93 S5        29.77R WCI  14
TOMAHAWK       CLOUDY    19  16  86 CALM      29.79R
MEDFORD        CLOUDY    20  19  93 SE5       29.77R FOG     WCI  14
MERRILL        CLOUDY    21  17  86 S3        29.80R
$$

WIZ029-030-035-036-043>047-270000-
CENTRAL WISCONSIN

CITY           SKY/WX    TMP DP  RH WIND       PRES   REMARKS
WAUSAU         MIX PCPN  21  18  88 SE6       29.80R WCI  13
MOSINEE        NOT AVBL
MARSHFIELD     FRZ RAIN  23  20  88 S7        29.80R FOG     WCI  15
STEVENS POINT  CLOUDY    20  19  93 S3        29.82R FOG
WAUPACA        CLOUDY    26  22  87 SE5       29.83R FOG     WCI  20
WAUTOMA        NOT AVBL
WISC RAPIDS    CLOUDY    22  19  89 SE3       29.83R
CAMP DOUGLAS   NOT AVBL
$$

WIZ011>013-019>022-031-037>040-048>050-270000-
NORTHEAST WISCONSIN

CITY           SKY/WX    TMP DP  RH WIND       PRES   REMARKS
ANTIGO         CLOUDY    19  18  93 S8        29.79R WCI   9
SHAWANO        CLOUDY    26  21  80 SE5       29.85R WCI  21
OCONTO         CLOUDY    25  22  89 MISG      29.86S
STURGEON BAY   CLOUDY    25  19  80 SE8       29.89S WCI  16
GREEN BAY      CLOUDY    25  20  81 SE9       29.86R WCI  15
MANITOWOC      MIX PCPN  27  21  80 S9        29.88R WCI  17
APPLETON       LGT SNOW  25  19  80 MISG      29.84R
CLINTONVILLE   CLOUDY    25  21  86 SE8       29.83S WCI  16
OSHKOSH        LGT SNOW  24  19  81 SE7       29.84R WCI  16
$$

WIZ032>034-041-042-053>061-270000-
SOUTHWEST WISCONSIN

CITY           SKY/WX    TMP DP  RH WIND       PRES   REMARKS
LA CROSSE      CLOUDY    30  26  85 S5        29.81R WCI  25
SPARTA         CLOUDY    26  26  96 CALM      29.81R
VIROQUA        CLOUDY    26  26 100 S3        29.78R
BOSCOBEL       CLOUDY    27  24  89 CALM      29.83R FOG
PRAIRIE DU CHI CLOUDY    29  25  86 E6        29.81R FOG     WCI  23
PLATTEVILLE    CLOUDY    26  24  96 S7        29.81R WCI  18
$$

WIZ056-057-062-063-064-067-068-270000-
SOUTH CENTRAL WISCONSIN

CITY           SKY/WX    TMP DP  RH WIND       PRES   REMARKS
REEDSBURG      CLOUDY    23  22  94 CALM      29.81R FOG
BARABOO/DELLS  CLOUDY    22  21  93 S7        29.81R WCI  14
LONE ROCK      CLOUDY    25  23  92 CALM      29.83R FOG
MINERAL POINT  CLOUDY    27  25  93 SE6       29.80R FOG     WCI  20
MADISON        FRZ DRZL  23  21  92 S10       29.83R VSB 1   WCI  12
MIDDLETON      CLOUDY    25  24  95 S6        29.83R WCI  18
WATERTOWN      CLOUDY    24  24 100 SE6       29.84R FOG     WCI  17
MONROE         CLOUDY    25  23  93 S7        29.81R FOG     WCI  17
JANESVILLE     CLOUDY    27  25  93 S9        29.84S FOG     WCI  17
$$

WIZ051-052-058>065-066-070>072-270000-
SOUTHEAST WISCONSIN

CITY           SKY/WX    TMP DP  RH WIND       PRES   REMARKS
MILWAUKEE      FLURRIES  26  19  74 S9        29.87R WCI  17
WAUKESHA       CLOUDY    23  19  86 SE7       29.86R WCI  15
MILWAUKEE/TIMM LGT SNOW  27  19  74 SE7       29.87R WCI  19
RACINE         FLURRIES  26  19  74 S7        29.89R WCI  18
BURLINGTON     LGT SNOW  24  20  87 S8        29.86S WCI  15
KENOSHA        FLURRIES  26  21  81 S9        29.87R WCI  17
FOND DU LAC    FLURRIES  25  19  78 SE7       29.84R WCI  17
SHEBOYGAN      CLOUDY    25  19  78 S7        29.87R WCI  17
WEST BEND      LGT SNOW  27  21  80 SE5       29.85R WCI  21
JUNEAU         MIX PCPN  24  22  93 SE8       29.84S WCI  15
$$

LSZ147-162-270000-
LAKE SUPERIOR

STATION/POSITION TIME  TEMP    WIND        PRES    WAVE
                       AIR SEA DIR/SP/G            HT/PER
                 (UTC) (F)     (DEG/KT/KT) (MB)    (FT/S)
DEVILS ISLAND    2200   25     210/  3/  3 1009.5R
PORT WING        2200   27     350/  2/  3 1008.8R
SAXON HARBOR     2200   25        CALM     1008.8R
$$

LMZ867-665-643>646-270000-
LAKE MICHIGAN

STATION/POSITION TIME  TEMP    WIND        PRES    WAVE
                       AIR SEA DIR/SP/G            HT/PER
                 (UTC) (F)     (DEG/KT/KT) (MB)    (FT/S)
NORTHPORT PIER   2219   25     140/ 13/ 17 1012.9R
KEWAUNEE LAKESHO 2200   27     200/  9/ 12 1010.6R
SHEBOYGAN LAKESH 2200   26     190/ 12/ 14 1012.3R
PORT WASHINGTON  2200   27     160/ 11/ 13 1011.9R
MILWAUKEE LAKESH 2200   26     160/ 11/ 13   N/A
KENOSHA   LAKESH 2200   26     160/ 11/ 13 1011.5R
$$

TC  - TEMPERATURE IN CELSIUS
VSB - VISIBILITY IN STATUTE MILES
WCI - WIND CHILL INDEX
HX  - HEAT INDEX



USA.gov is the U.S. government's official web portal to all federal, state and local government web resources and services.